| time (UTC) | temp C | wind direction | speed KPH | gust KPH | rain 1hr cm | rain 24hr cm | rain mn cm | humidity % | barometer mb |
| 20260906164552 | 22 | 119 | 0.0 | 4.8 | 0.00 | 0.00 | 0.00 | 86 | 1019.3 |
| 20260906163048 | 22 | 132 | 0.0 | 4.8 | 0.00 | 0.00 | 0.00 | 87 | 1019.4 |
| 20260906161535 | 22 | 122 | 0.0 | 8.0 | 0.00 | 0.00 | 0.00 | 89 | 1019.1 |
| 20260906160044 | 22 | 136 | 0.0 | 9.7 | 0.00 | 0.00 | 0.00 | 90 | 1019.1 |
| 20260906154525 | 21 | 128 | 0.0 | 1.6 | 0.00 | 0.00 | 0.00 | 91 | 1019.4 |
| 20260906153025 | 21 | 121 | 0.0 | 1.6 | 0.00 | 0.00 | 0.00 | 92 | 1019.5 |
| 20260906151524 | 21 | 115 | 0.0 | 1.6 | 0.00 | 0.00 | 0.00 | 92 | 1019.6 |
| 20260906150042 | 21 | 119 | 0.0 | 3.2 | 0.00 | 0.00 | 0.00 | 92 | 1019.6 |
| 20260906144532 | 20 | 108 | 0.0 | 3.2 | 0.00 | 0.00 | 0.00 | 93 | 1019.5 |
| 20260906143025 | 20 | 108 | 0.0 | 3.2 | 0.00 | 0.00 | 0.00 | 93 | 1019.2 |
| 20260906141533 | 20 | 110 | 0.0 | 3.2 | 0.00 | 0.00 | 0.00 | 94 | 1019.1 |
| 20260906140021 | 20 | 124 | 0.0 | 3.2 | 0.00 | 0.00 | 0.00 | 94 | 1019.0 |
| 20260906134517 | 20 | 143 | 0.0 | 9.7 | 0.00 | 0.00 | 0.00 | 95 | 1019.1 |
| 20260906133016 | 20 | 254 | 0.0 | 1.6 | 0.00 | 0.00 | 0.00 | 95 | 1018.9 |
| 20260906131524 | 20 | 141 | 0.0 | 3.2 | 0.00 | 0.00 | 0.00 | 96 | 1018.6 |
| 20260906130022 | -17 | 0.0 | 0.0 | 0.00 | 0.00 | 0.00 | 1018.4 | ||
| 20260906124511 | -17 | 0.0 | 0.0 | 0.00 | 0.00 | 0.00 | 1018.3 | ||
| 20260906123010 | -17 | 0.0 | 0.0 | 0.00 | 0.00 | 0.00 | 1018.3 | ||
| 20260906121503 | -17 | 0.0 | 0.0 | 0.00 | 0.00 | 0.00 | 1018.3 | ||
| 20260906120105 | -17 | 0.0 | 0.0 | 0.00 | 0.00 | 0.00 | 1018.1 | ||
| 20260906114555 | -17 | 0.0 | 0.0 | 0.00 | 0.00 | 0.00 | 1018.1 | ||
| 20260906113058 | -17 | 0.0 | 0.0 | 0.00 | 0.00 | 0.00 | 1018.1 | ||
| 20260906111549 | -17 | 0.0 | 0.0 | 0.00 | 0.00 | 0.00 | 1018.0 | ||
| 20260906110044 | -17 | 0.0 | 0.0 | 0.00 | 0.00 | 0.00 | 1017.8 | ||
| 20260906104537 | -17 | 0.0 | 0.0 | 0.00 | 0.00 | 0.00 | 1017.4 | ||
| 20260906103033 | -17 | 122 | 0.0 | 0.0 | 0.00 | 0.00 | 0.00 | 1017.4 | |
| 20260906101531 | 19 | 122 | 0.0 | 1.6 | 0.00 | 0.00 | 0.00 | 97 | 1017.4 |
| 20260906100029 | 19 | 122 | 0.0 | 0.0 | 0.00 | 0.00 | 0.00 | 97 | 1017.3 |
| 20260906094537 | 20 | 122 | 0.0 | 0.0 | 0.00 | 0.00 | 0.00 | 97 | 1017.0 |
| 20260906093026 | 20 | 122 | 0.0 | 0.0 | 0.00 | 0.00 | 0.00 | 97 | 1016.7 |
| 20260906091525 | 20 | 122 | 0.0 | 1.6 | 0.00 | 0.00 | 0.00 | 97 | 1016.4 |
| 20260906090026 | 20 | 122 | 0.0 | 1.6 | 0.00 | 0.00 | 0.00 | 96 | 1016.4 |
| 20260906084528 | 20 | 126 | 0.0 | 1.6 | 0.00 | 0.00 | 0.00 | 96 | 1016.5 |
| 20260906083021 | 20 | 139 | 0.0 | 1.6 | 0.00 | 0.00 | 0.00 | 96 | 1016.5 |
| 20260906081539 | 20 | 152 | 0.0 | 1.6 | 0.00 | 0.00 | 0.00 | 96 | 1016.4 |
| 20260906080017 | 21 | 210 | 0.0 | 1.6 | 0.00 | 0.00 | 0.00 | 95 | 1016.5 |
| 20260906074516 | 21 | 186 | 0.0 | 3.2 | 0.00 | 0.00 | 0.00 | 95 | 1016.7 |
| 20260906073017 | 21 | 60 | 0.0 | 4.8 | 0.00 | 0.00 | 0.00 | 95 | 1016.5 |
| 20260906071513 | 21 | 131 | 0.0 | 3.2 | 0.00 | 0.00 | 0.00 | 95 | 1016.5 |
| 20260906070013 | 21 | 295 | 0.0 | 1.6 | 0.00 | 0.00 | 0.00 | 95 | 1016.9 |
| 20260906064512 | 21 | 46 | 0.0 | 3.2 | 0.00 | 0.00 | 0.00 | 95 | 1017.2 |
| 20260906063012 | 21 | 124 | 0.0 | 1.6 | 0.00 | 0.00 | 0.00 | 95 | 1017.2 |
| 20260906061512 | 21 | 43 | 0.0 | 3.2 | 0.00 | 0.00 | 0.00 | 94 | 1017.0 |
| 20260906060008 | 21 | 62 | 0.0 | 1.6 | 0.00 | 0.00 | 0.00 | 94 | 1017.1 |
| 20260906054507 | 21 | 43 | 0.0 | 3.2 | 0.00 | 0.00 | 0.00 | 94 | 1017.0 |
| 20260906053005 | 21 | 30 | 0.0 | 1.6 | 0.00 | 0.00 | 0.00 | 95 | 1016.9 |
| 20260906051504 | 21 | 32 | 0.0 | 3.2 | 0.00 | 0.00 | 0.00 | 95 | 1016.7 |
| 20260906050002 | 21 | 116 | 0.0 | 1.6 | 0.00 | 0.00 | 0.00 | 94 | 1016.7 |
| 20260906044501 | 21 | 117 | 0.0 | 1.6 | 0.00 | 0.00 | 0.00 | 94 | 1016.6 |
| 20260906043100 | 21 | 118 | 0.0 | 1.6 | 0.00 | 0.00 | 0.00 | 94 | 1016.8 |
| 20260906041600 | 22 | 118 | 0.0 | 0.0 | 0.00 | 0.00 | 0.00 | 94 | 1016.7 |
| 20260906040135 | 22 | 118 | 0.0 | 0.0 | 0.00 | 0.00 | 0.00 | 93 | 1016.6 |
| 20260906034605 | 22 | 118 | 0.0 | 1.6 | 0.00 | 0.00 | 0.00 | 93 | 1016.8 |
| 20260906033058 | 22 | 118 | 0.0 | 1.6 | 0.00 | 0.00 | 0.00 | 93 | 1016.6 |
| 20260906031602 | 22 | 117 | 0.0 | 0.0 | 0.00 | 0.00 | 0.00 | 93 | 1016.5 |
| 20260906030055 | 22 | 117 | 0.0 | 0.0 | 0.00 | 0.00 | 0.00 | 93 | 1016.3 |
| 20260906024553 | 22 | 117 | 0.0 | 1.6 | 0.00 | 0.00 | 0.00 | 92 | 1016.1 |
| 20260906023052 | 22 | 129 | 0.0 | 1.6 | 0.00 | 0.00 | 0.00 | 92 | 1016.1 |
| 20260906021602 | 23 | 229 | 0.0 | 0.0 | 0.00 | 0.00 | 0.00 | 92 | 1016.0 |
| 20260906020057 | 23 | 79 | 0.0 | 3.2 | 0.00 | 0.00 | 0.00 | 92 | 1015.5 |
| 20260906014557 | 23 | 113 | 0.0 | 6.4 | 0.00 | 0.00 | 0.00 | 92 | 1015.3 |
| 20260906013049 | 23 | 205 | 0.0 | 3.2 | 0.00 | 0.00 | 0.00 | 93 | 1014.9 |
| 20260906011550 | 23 | 218 | 0.0 | 0.0 | 0.00 | 0.00 | 0.00 | 92 | 1014.9 |
| 20260906010051 | 23 | 218 | 0.0 | 0.0 | 0.00 | 0.00 | 0.00 | 92 | 1014.7 |
| 20260906004553 | 23 | 218 | 0.0 | 0.0 | 0.00 | 0.00 | 0.00 | 91 | 1014.7 |
| 20260906003048 | 24 | 218 | 0.0 | 0.0 | 0.00 | 0.00 | 0.00 | 89 | 1014.5 |
| 20260906001553 | 25 | 218 | 0.0 | 0.0 | 0.00 | 0.00 | 0.00 | 88 | 1014.4 |
| 20260906000046 | 25 | 218 | 0.0 | 0.0 | 0.00 | 0.00 | 0.00 | 87 | 1014.4 |
| 20260905234545 | 25 | 113 | 0.0 | 1.6 | 0.00 | 0.00 | 0.00 | 85 | 1014.2 |
| 20260905233045 | 26 | 25 | 0.0 | 6.4 | 0.00 | 0.00 | 0.00 | 83 | 1014.4 |
| 20260905231545 | 27 | 109 | 0.0 | 6.4 | 0.00 | 0.00 | 0.00 | 81 | 1014.4 |
| 20260905230051 | 27 | 70 | 1.6 | 8.0 | 0.00 | 0.00 | 0.00 | 81 | 1014.0 |
| 20260905224551 | 27 | 22 | 1.6 | 14.5 | 0.00 | 0.00 | 0.00 | 81 | 1014.0 |
| 20260905223045 | 27 | 124 | 3.2 | 11.3 | 0.00 | 0.00 | 0.00 | 80 | 1013.8 |
| 20260905221547 | 28 | 122 | 3.2 | 14.5 | 0.00 | 0.00 | 0.00 | 79 | 1013.9 |
| 20260905220042 | 27 | 133 | 1.6 | 14.5 | 0.00 | 0.00 | 0.00 | 81 | 1013.9 |
| 20260905214540 | 27 | 335 | 4.8 | 12.9 | 0.00 | 0.00 | 0.00 | 81 | 1014.0 |
| 20260905213040 | 27 | 112 | 4.8 | 11.3 | 0.00 | 0.00 | 0.00 | 81 | 1014.0 |
| 20260905211545 | 27 | 165 | 4.8 | 16.1 | 0.00 | 0.00 | 0.00 | 83 | 1014.1 |
| 20260905210056 | 27 | 118 | 3.2 | 11.3 | 0.00 | 0.00 | 0.00 | 83 | 1014.3 |
| 20260905204539 | 28 | 105 | 1.6 | 11.3 | 0.00 | 0.00 | 0.00 | 83 | 1014.5 |
| 20260905203041 | 27 | 13 | 3.2 | 14.5 | 0.00 | 0.00 | 0.00 | 84 | 1014.7 |
| 20260905201540 | 28 | 80 | 3.2 | 12.9 | 0.00 | 0.00 | 0.00 | 82 | 1014.7 |
| 20260905200052 | 28 | 342 | 3.2 | 11.3 | 0.00 | 0.00 | 0.00 | 81 | 1014.9 |
| 20260905194537 | 28 | 353 | 4.8 | 12.9 | 0.00 | 0.00 | 0.00 | 82 | 1014.9 |
| 20260905193035 | 28 | 349 | 3.2 | 12.9 | 0.00 | 0.00 | 0.00 | 83 | 1015.0 |
| 20260905191540 | 28 | 133 | 3.2 | 9.7 | 0.00 | 0.00 | 0.00 | 81 | 1015.1 |
| 20260905190034 | 28 | 290 | 1.6 | 11.3 | 0.00 | 0.00 | 0.00 | 83 | 1015.5 |
| 20260905184536 | 28 | 30 | 1.6 | 12.9 | 0.00 | 0.00 | 0.00 | 82 | 1015.6 |
| 20260905183032 | 28 | 53 | 4.8 | 14.5 | 0.00 | 0.00 | 0.00 | 82 | 1015.7 |
| 20260905181531 | 28 | 15 | 4.8 | 14.5 | 0.00 | 0.00 | 0.00 | 83 | 1015.6 |
| 20260905180034 | 28 | 33 | 3.2 | 12.9 | 0.00 | 0.00 | 0.00 | 83 | 1015.4 |
| 20260905174532 | 27 | 27 | 6.4 | 17.7 | 0.00 | 0.00 | 0.00 | 85 | 1015.3 |
| 20260905173027 | 28 | 335 | 3.2 | 11.3 | 0.00 | 0.00 | 0.00 | 83 | 1015.3 |
| 20260905171540 | 29 | 23 | 1.6 | 16.1 | 0.00 | 0.00 | 0.00 | 83 | 1015.1 |
| 20260905170031 | 29 | 350 | 3.2 | 14.5 | 0.00 | 0.00 | 0.00 | 83 | 1015.1 |